Stations météo

réclame
Mon MeteoGroup
Desenzano, Italie (16089): Température de l'air & dewpoint: 18.02.2018 15:00:00 - 24.02.2018 15:00:00 (CET)Desenzano, Italie (16089): Vitesse du vent: 18.02.2018 15:00:00 - 24.02.2018 15:00:00 (CET)Desenzano, Italie (16089): Direction du vent: 18.02.2018 15:00:00 - 24.02.2018 15:00:00 (CET)Desenzano, Italie (16089): reduced air pressure: 18.02.2018 15:00:00 - 24.02.2018 15:00:00 (CET)Desenzano, Italie (16089): Quantités de précipitations: 18.02.2018 15:00:00 - 24.02.2018 15:00:00 (CET)
Date & Time tt [°C] td [°C] ff [km/h] ff [knt] dd ppp [hPa] rr [mm]
24.02.2018 15:00:00 - - - - - - -
24.02.2018 14:00:00 10,6 4,7 2 1 N 1010,8 -
24.02.2018 13:00:00 10,6 4,4 8 4 NNE 1011,5 0,0
24.02.2018 12:00:00 11,7 5,0 4 2 E 1011,7 -
24.02.2018 11:00:00 9,0 7,4 0 0 N 1011,7 -
24.02.2018 10:00:00 7,7 6,9 2 1 WSW 1011,8 -
24.02.2018 09:00:00 6,3 6,2 2 1 SW 1011,7 -
24.02.2018 08:00:00 5,0 4,6 2 1 S 1011,1 -
24.02.2018 07:00:00 5,0 4,6 4 2 SSW 1010,7 0,0
24.02.2018 06:00:00 4,8 4,2 2 1 SW 1010,4 -
24.02.2018 05:00:00 4,9 4,3 4 2 SW 1010,5 -
24.02.2018 04:00:00 4,8 4,2 2 1 SW 1010,3 -
24.02.2018 03:00:00 4,8 3,9 4 2 SSW 1010,3 -
24.02.2018 02:00:00 4,9 3,8 2 1 S 1010,0 -
24.02.2018 01:00:00 5,2 4,1 4 2 S 1009,7 0,0
24.02.2018 00:00:00 5,2 4,0 2 1 SW 1009,6 -
23.02.2018 23:00:00 5,2 3,8 4 2 SW 1009,5 -
23.02.2018 22:00:00 5,0 3,6 4 2 S 1009,7 -
23.02.2018 21:00:00 5,0 3,5 2 1 S 1009,7 -
23.02.2018 20:00:00 5,1 3,3 2 1 SSW 1009,5 -
23.02.2018 19:00:00 5,7 3,5 2 1 S 1009,6 0,0
23.02.2018 18:00:00 6,4 4,0 5 3 SSE 1009,5 -
23.02.2018 17:00:00 6,9 3,6 4 2 SSW 1008,9 -
23.02.2018 16:00:00 6,6 3,5 4 2 SW 1008,9 -
23.02.2018 15:00:00 6,6 4,2 2 1 SSW 1009,3 -
23.02.2018 14:00:00 6,1 4,4 5 3 WSW 1009,4 -
23.02.2018 13:00:00 5,2 4,0 4 2 SW 1010,2 0,0
23.02.2018 12:00:00 4,3 3,7 4 2 WSW 1010,4 -
23.02.2018 11:00:00 3,7 3,3 2 1 SW 1010,7 -
23.02.2018 10:00:00 3,0 2,3 2 1 SSW 1010,2 -
23.02.2018 09:00:00 2,7 1,8 0 0 N 1009,9 -
23.02.2018 08:00:00 2,3 1,1 0 0 N 1009,9 -
23.02.2018 07:00:00 2,7 1,4 2 1 S 1009,4 0,0
23.02.2018 06:00:00 3,2 1,9 4 2 S 1008,8 -
23.02.2018 05:00:00 3,4 1,9 5 3 S 1008,7 -
23.02.2018 04:00:00 4,0 2,8 2 1 S 1008,7 -
23.02.2018 03:00:00 4,1 3,2 4 2 SW 1009,0 -
23.02.2018 02:00:00 4,0 3,1 4 2 SSW 1009,2 -
23.02.2018 01:00:00 4,4 3,5 5 3 SSW 1009,2 0,0
23.02.2018 00:00:00 4,5 3,6 4 2 SSW 1009,4 -
22.02.2018 23:00:00 4,6 3,6 4 2 SW 1009,4 -
22.02.2018 22:00:00 4,5 3,1 4 2 WSW 1009,3 -
22.02.2018 21:00:00 4,6 3,2 4 2 SW 1009,6 -
22.02.2018 20:00:00 4,6 3,2 4 2 SSW 1009,6 -
22.02.2018 19:00:00 4,5 3,1 4 2 SW 1009,3 0,0
22.02.2018 18:00:00 4,7 3,5 4 2 SSW 1009,0 -
22.02.2018 17:00:00 5,2 3,8 4 2 SW 1008,9 -
22.02.2018 16:00:00 5,1 3,7 2 1 SE 1008,9 -
22.02.2018 15:00:00 4,8 3,4 4 2 SE 1008,8 -
22.02.2018 14:00:00 4,6 3,6 0 0 N 1009,0 -
22.02.2018 13:00:00 3,8 2,4 4 2 S 1009,1 0,0
22.02.2018 12:00:00 4,3 2,6 4 2 SSE 1009,3 -
22.02.2018 11:00:00 4,5 2,8 0 0 N 1008,7 -
22.02.2018 10:00:00 4,1 2,6 2 1 SSW 1008,2 -
22.02.2018 09:00:00 3,7 1,9 4 2 S 1008,2 -
22.02.2018 08:00:00 3,7 1,0 2 1 SSE 1007,9 -
22.02.2018 07:00:00 4,0 0,3 2 1 S 1007,5 0,0
22.02.2018 06:00:00 4,6 0,3 4 2 S 1007,4 -
22.02.2018 05:00:00 4,6 -0,1 4 2 S 1007,2 -
22.02.2018 04:00:00 4,5 -0,2 4 2 SSW 1007,2 -
22.02.2018 03:00:00 4,3 0,2 4 2 S 1007,6 -
22.02.2018 02:00:00 4,5 0,0 4 2 S 1007,8 -
22.02.2018 01:00:00 4,2 -0,3 0 0 N 1007,9 0,0
22.02.2018 00:00:00 4,4 -0,3 0 0 N 1008,3 -
21.02.2018 23:00:00 4,6 -0,7 0 0 N 1008,7 -
21.02.2018 22:00:00 4,8 -0,7 2 1 S 1009,0 -
21.02.2018 21:00:00 4,5 -1,4 0 0 N 1009,3 -
21.02.2018 20:00:00 5,7 -1,1 0 0 N 1009,0 -
21.02.2018 19:00:00 6,9 -0,2 0 0 N 1009,2 0,0
21.02.2018 18:00:00 7,7 0,1 0 0 N 1008,8 -
21.02.2018 17:00:00 8,3 -0,6 4 2 SSE 1008,5 -
21.02.2018 16:00:00 8,7 -0,2 5 3 S 1008,7 -
21.02.2018 15:00:00 8,6 0,0 2 1 WSW 1009,1 -
21.02.2018 14:00:00 8,1 -1,3 2 1 ESE 1009,7 -
21.02.2018 13:00:00 8,2 -0,4 2 1 N 1010,2 0,0
21.02.2018 12:00:00 7,6 0,2 4 2 SE 1010,7 -
21.02.2018 11:00:00 6,3 1,2 0 0 N 1010,7 -
21.02.2018 10:00:00 5,1 1,0 0 0 N 1010,4 -
21.02.2018 09:00:00 4,0 0,6 0 0 N 1010,2 -
21.02.2018 08:00:00 2,7 -1,0 2 1 W 1009,8 -
21.02.2018 07:00:00 2,8 -2,4 0 0 N 1009,3 0,0
21.02.2018 06:00:00 4,3 -1,6 4 2 SW 1009,2 -
21.02.2018 05:00:00 4,8 -0,9 5 3 SSW 1009,1 -
21.02.2018 04:00:00 4,5 -0,6 0 0 N 1009,5 -
21.02.2018 03:00:00 4,0 -1,4 0 0 N 1009,7 -
21.02.2018 02:00:00 4,1 -1,6 0 0 N 1010,0 -
21.02.2018 01:00:00 4,0 -1,4 0 0 N 1010,0 0,0
21.02.2018 00:00:00 3,9 -2,0 0 0 N 1010,0 -
20.02.2018 23:00:00 4,0 -2,1 2 1 WSW 1010,0 -
20.02.2018 22:00:00 5,1 -2,3 0 0 N 1010,1 -
20.02.2018 21:00:00 6,0 -1,0 0 0 N 1010,2 -
20.02.2018 20:00:00 6,2 -0,4 9 5 ENE 1010,1 -
20.02.2018 19:00:00 6,4 -1,1 0 0 N 1009,9 0,0
20.02.2018 18:00:00 6,6 -1,2 2 1 E 1009,6 -
20.02.2018 17:00:00 7,5 -1,6 2 1 SE 1009,1 -
20.02.2018 16:00:00 8,3 -1,1 4 2 ESE 1008,7 -
20.02.2018 15:00:00 8,6 -1,3 5 3 SSE 1009,0 -
20.02.2018 14:00:00 9,3 -0,2 2 1 NNW 1009,4 -
20.02.2018 13:00:00 8,8 -0,4 4 2 SSE 1009,9 0,0
20.02.2018 12:00:00 8,3 -0,3 4 2 S 1010,4 -
20.02.2018 11:00:00 6,1 -0,5 0 0 N 1010,9 -
20.02.2018 10:00:00 4,6 -0,5 0 0 N 1011,2 -
20.02.2018 09:00:00 1,0 -1,9 0 0 N 1011,6 -
20.02.2018 08:00:00 0,1 -3,7 0 0 N 1011,7 -
20.02.2018 07:00:00 0,4 -4,5 0 0 N 1011,6 0,0
20.02.2018 06:00:00 1,7 -3,6 0 0 N 1011,8 -
20.02.2018 05:00:00 2,7 -2,9 0 0 N 1012,0 -
20.02.2018 04:00:00 3,6 -2,2 0 0 N 1012,4 -
20.02.2018 03:00:00 3,8 -1,2 0 0 N 1012,6 -
20.02.2018 02:00:00 3,9 -1,1 2 1 SSE 1013,1 -
20.02.2018 01:00:00 4,3 -0,4 0 0 N 1013,8 0,0
20.02.2018 00:00:00 4,7 -0,4 2 1 SE 1014,1 -
19.02.2018 23:00:00 4,7 -0,4 0 0 N 1014,3 -
19.02.2018 22:00:00 5,0 -0,3 0 0 N 1014,8 -
19.02.2018 21:00:00 5,2 -0,5 0 0 N 1015,3 -
19.02.2018 20:00:00 5,3 -0,8 0 0 N 1015,5 -
19.02.2018 19:00:00 5,7 -0,9 2 1 WSW 1015,8 0,0
19.02.2018 18:00:00 6,1 -0,9 4 2 W 1016,1 -
19.02.2018 17:00:00 6,4 -0,7 2 1 W 1016,4 -
19.02.2018 16:00:00 6,3 -1,2 4 2 WSW 1016,8 -
19.02.2018 15:00:00 6,5 -1,0 5 3 W 1017,3 -
19.02.2018 14:00:00 6,5 -1,3 4 2 WSW 1018,1 -
19.02.2018 13:00:00 6,8 -1,0 4 2 SW 1018,8 0,0
19.02.2018 12:00:00 6,4 -1,4 2 1 SW 1019,4 -
19.02.2018 11:00:00 6,0 -0,8 2 1 S 1019,7 -
19.02.2018 10:00:00 5,7 -1,3 2 1 SSE 1019,9 -
19.02.2018 09:00:00 5,0 -1,1 4 2 S 1020,0 -
19.02.2018 08:00:00 4,3 -1,4 4 2 S 1020,1 -
19.02.2018 07:00:00 4,4 -1,3 4 2 S 1019,9 0,0
19.02.2018 06:00:00 4,6 -0,7 2 1 SSW 1019,9 -
19.02.2018 05:00:00 4,9 -1,0 0 0 N 1020,1 -
19.02.2018 04:00:00 5,0 -1,1 4 2 SSW 1020,2 -
19.02.2018 03:00:00 5,0 -0,7 2 1 S 1020,6 -
19.02.2018 02:00:00 5,2 -0,5 4 2 SSE 1021,1 -
19.02.2018 01:00:00 5,1 0,4 4 2 SSW 1021,3 0,0
19.02.2018 00:00:00 5,4 0,3 0 0 N 1021,6 -
18.02.2018 23:00:00 5,6 0,5 0 0 N 1021,7 -
18.02.2018 22:00:00 5,9 0,4 2 1 S 1021,8 -
18.02.2018 21:00:00 6,1 0,4 2 1 SSE 1021,8 -
18.02.2018 20:00:00 6,5 0,3 4 2 SE 1021,7 -
18.02.2018 19:00:00 6,9 1,1 4 2 SE 1021,4 0,0
18.02.2018 18:00:00 7,2 1,4 8 4 E 1021,2 -
18.02.2018 17:00:00 7,4 2,4 11 6 E 1020,8 -
18.02.2018 16:00:00 7,6 3,6 9 5 E 1020,6 -
18.02.2018 15:00:00 8,0 4,5 9 5 E 1020,3 -

tt = Température de l'air
td = dewpoint
ff = Vitesse du vent
dd = Direction du vent
ppp = reduced air pressure
rr = Quantités de précipitations

stations d'obs. à proximité